| time (UTC) | temp F | wind direction | speed knots | gust knots | rain 1hr in | rain 24hr in | rain mn in | humidity % | barometer mb |
| 20260505052517 | 40 | 9 | 0.0 | 0.0 | 0.00 | 0.00 | 0.10 | 67 | 1003.7 |
| 20260505052019 | 40 | 9 | 0.0 | 0.0 | 0.00 | 0.00 | 0.10 | 67 | 1003.7 |
| 20260505051518 | 40 | 9 | 0.0 | 0.0 | 0.00 | 0.00 | 0.10 | 67 | 1003.7 |
| 20260505051019 | 40 | 9 | 1.7 | 0.0 | 0.00 | 0.00 | 0.10 | 67 | 1003.7 |
| 20260505050520 | 40 | 9 | 1.7 | 0.0 | 0.00 | 0.00 | 0.10 | 67 | 1004.1 |
| 20260505041518 | 41 | 310 | 1.7 | 0.0 | 0.00 | 0.00 | 0.10 | 67 | 1003.7 |
| 20260505041018 | 41 | 180 | 0.0 | 0.0 | 0.00 | 0.00 | 0.10 | 67 | 1004.1 |
| 20260505040518 | 41 | 180 | 0.0 | 0.0 | 0.00 | 0.00 | 0.10 | 67 | 1004.1 |
| 20260505040017 | 41 | 180 | 0.0 | 0.0 | 0.00 | 0.00 | 0.10 | 67 | 1005.8 |
| 20260505035518 | 41 | 180 | 0.9 | 0.0 | 0.00 | 0.00 | 0.10 | 67 | 1005.4 |
| 20260505035015 | 41 | 180 | 0.0 | 0.0 | 0.00 | 0.00 | 0.10 | 67 | 1005.4 |
| 20260505034515 | 41 | 180 | 0.0 | 0.0 | 0.00 | 0.00 | 0.10 | 67 | 1005.4 |
| 20260505034016 | 41 | 180 | 0.0 | 0.0 | 0.00 | 0.00 | 0.10 | 67 | 1005.1 |
| 20260505033515 | 42 | 180 | 0.0 | 0.0 | 0.00 | 0.00 | 0.10 | 67 | 1005.1 |
| 20260505033016 | 42 | 180 | 1.7 | 0.0 | 0.00 | 0.00 | 0.10 | 67 | 1005.1 |
| 20260505032516 | 42 | 180 | 1.7 | 0.0 | 0.00 | 0.00 | 0.10 | 67 | 1005.4 |
| 20260505032016 | 42 | 180 | 0.0 | 0.0 | 0.00 | 0.00 | 0.10 | 68 | 1005.1 |
| 20260505031515 | 43 | 160 | 1.7 | 0.0 | 0.00 | 0.00 | 0.09 | 68 | 1004.7 |
| 20260505031016 | 43 | 160 | 3.5 | 0.0 | 0.00 | 0.00 | 0.08 | 68 | 1004.4 |
| 20260505030515 | 45 | 59 | 1.7 | 0.0 | 0.00 | 0.00 | 0.06 | 68 | 1004.1 |
| 20260505030015 | 46 | 96 | 1.7 | 0.0 | 0.00 | 0.00 | 0.04 | 67 | 1005.1 |
| 20260505025515 | 47 | 30 | 0.0 | 0.0 | 0.00 | 0.00 | 0.02 | 67 | 1004.7 |
| 20260505025014 | 47 | 103 | 0.0 | 0.0 | 0.00 | 0.00 | 0.02 | 66 | 1004.1 |
| 20260505024514 | 48 | 63 | 2.6 | 0.0 | 0.00 | 0.00 | 0.01 | 66 | 1003.7 |
| 20260505024015 | 49 | 14 | 0.0 | 0.0 | 0.00 | 0.00 | 0.01 | 65 | 1003.7 |
| 20260505023515 | 49 | 249 | 0.9 | 0.0 | 0.00 | 0.00 | 0.01 | 65 | 1003.7 |
| 20260505023015 | 49 | 202 | 0.0 | 0.0 | 0.00 | 0.00 | 0.01 | 64 | 1003.4 |
| 20260505022514 | 49 | 207 | 4.3 | 0.0 | 0.00 | 0.00 | 0.01 | 64 | 1003.0 |
| 20260505022014 | 49 | 171 | 0.9 | 0.0 | 0.00 | 0.00 | 0.01 | 64 | 1003.0 |
| 20260505021515 | 49 | 156 | 2.6 | 0.0 | 0.00 | 0.00 | 0.01 | 64 | 1002.7 |
| 20260505021015 | 49 | 67 | 2.6 | 0.0 | 0.00 | 0.00 | 0.01 | 64 | 1002.7 |
| 20260505020513 | 49 | 132 | 1.7 | 0.0 | 0.00 | 0.00 | 0.01 | 64 | 1002.7 |
| 20260505020014 | 49 | 134 | 5.2 | 0.0 | 0.00 | 0.00 | 0.01 | 64 | 1003.7 |
| 20260505015515 | 49 | 145 | 0.0 | 0.0 | 0.00 | 0.00 | 0.01 | 64 | 1003.4 |
| 20260505015015 | 49 | 160 | 4.3 | 0.0 | 0.00 | 0.00 | 0.01 | 64 | 1003.7 |
| 20260505014515 | 49 | 138 | 0.0 | 0.0 | 0.00 | 0.00 | 0.01 | 64 | 1003.7 |
| 20260505014013 | 49 | 138 | 0.0 | 0.0 | 0.00 | 0.00 | 0.01 | 64 | 1003.7 |
| 20260505013514 | 49 | 63 | 0.0 | 0.0 | 0.00 | 0.00 | 0.01 | 64 | 1003.7 |
| 20260505013014 | 49 | 96 | 0.0 | 0.0 | 0.00 | 0.00 | 0.01 | 64 | 1003.7 |
| 20260505012514 | 49 | 89 | 0.9 | 0.0 | 0.00 | 0.00 | 0.01 | 64 | 1003.7 |
| 20260505012013 | 49 | 110 | 0.0 | 0.0 | 0.00 | 0.00 | 0.01 | 64 | 1003.7 |
| 20260505011515 | 49 | 96 | 1.7 | 0.0 | 0.00 | 0.00 | 0.01 | 64 | 1004.1 |
| 20260505011014 | 50 | 101 | 1.7 | 0.0 | 0.00 | 0.00 | 0.01 | 64 | 1003.7 |
| 20260505010512 | 50 | 134 | 3.5 | 0.0 | 0.00 | 0.00 | 0.01 | 64 | 1003.7 |
| 20260505010014 | 50 | 132 | 2.6 | 0.0 | 0.00 | 0.00 | 0.01 | 64 | 1005.4 |
| 20260505005513 | 50 | 103 | 1.7 | 0.0 | 0.00 | 0.00 | 0.01 | 63 | 1005.1 |
| 20260505005013 | 50 | 61 | 3.5 | 0.0 | 0.00 | 0.00 | 0.01 | 63 | 1005.1 |
| 20260505004511 | 50 | 187 | 10.4 | 0.0 | 0.00 | 0.00 | 0.01 | 63 | 1005.1 |
| 20260505004012 | 51 | 184 | 3.5 | 0.0 | 0.00 | 0.00 | 0.01 | 63 | 1005.4 |
| 20260505003512 | 51 | 252 | 0.0 | 0.0 | 0.00 | 0.00 | 0.01 | 63 | 1005.4 |
| 20260505003014 | 51 | 250 | 0.9 | 0.0 | 0.00 | 0.00 | 0.01 | 64 | 1005.4 |
| 20260505002514 | 50 | 251 | 0.9 | 0.0 | 0.00 | 0.00 | 0.01 | 63 | 1005.4 |
| 20260505002013 | 50 | 251 | 0.0 | 0.0 | 0.00 | 0.00 | 0.01 | 62 | 1005.4 |
| 20260505001514 | 50 | 219 | 2.6 | 0.0 | 0.00 | 0.00 | 0.01 | 63 | 1005.4 |
| 20260505001012 | 50 | 203 | 1.7 | 0.0 | 0.00 | 0.00 | 0.01 | 63 | 1005.4 |
| 20260505000513 | 50 | 217 | 5.2 | 0.0 | 0.00 | 0.00 | 0.01 | 61 | 1005.4 |
| 20260505000016 | 50 | 184 | 6.1 | 0.0 | 0.00 | 0.00 | 0.01 | 60 | 1005.4 |
| 20260504235517 | 51 | 310 | 1.7 | 0.0 | 0.00 | 0.00 | 0.01 | 59 | 1005.1 |
| 20260504235011 | 51 | 302 | 2.6 | 0.0 | 0.00 | 0.00 | 0.00 | 56 | 1005.4 |
| 20260504234513 | 51 | 246 | 0.0 | 0.0 | 0.00 | 0.00 | 0.00 | 55 | 1005.1 |
| 20260504234012 | 51 | 245 | 0.9 | 0.0 | 0.00 | 0.00 | 0.00 | 55 | 1005.1 |
| 20260504233513 | 52 | 167 | 1.7 | 0.0 | 0.00 | 0.00 | 0.00 | 55 | 1004.7 |
| 20260504233018 | 52 | 42 | 0.9 | 0.0 | 0.00 | 0.00 | 0.00 | 56 | 1004.7 |
| 20260504232516 | 52 | 42 | 0.0 | 0.0 | 0.00 | 0.00 | 0.00 | 56 | 1004.7 |
| 20260504232017 | 51 | 180 | 0.0 | 0.0 | 0.00 | 0.00 | 0.00 | 56 | 1004.7 |
| 20260504231514 | 51 | 24 | 2.6 | 0.0 | 0.00 | 0.00 | 0.00 | 55 | 1004.7 |
| 20260504231011 | 51 | 46 | 2.6 | 0.0 | 0.00 | 0.00 | 0.00 | 54 | 1004.7 |
| 20260504230513 | 51 | 26 | 0.9 | 0.0 | 0.00 | 0.00 | 0.00 | 55 | 1005.1 |
| 20260504230016 | 52 | 360 | 3.5 | 0.0 | 0.00 | 0.00 | 0.00 | 54 | 1004.7 |
| 20260504225512 | 52 | 64 | 3.5 | 0.0 | 0.00 | 0.00 | 0.00 | 54 | 1004.4 |
| 20260504225015 | 52 | 188 | 2.6 | 0.0 | 0.00 | 0.00 | 0.00 | 54 | 1004.4 |
| 20260504224514 | 52 | 330 | 0.9 | 0.0 | 0.00 | 0.00 | 0.00 | 53 | 1004.4 |
| 20260504224012 | 53 | 52 | 2.6 | 0.0 | 0.00 | 0.00 | 0.00 | 53 | 1004.4 |
| 20260504223512 | 53 | 313 | 2.6 | 0.0 | 0.00 | 0.00 | 0.00 | 50 | 1004.4 |
| 20260504223014 | 53 | 35 | 7.8 | 0.0 | 0.00 | 0.00 | 0.00 | 50 | 1004.4 |
| 20260504222514 | 53 | 149 | 10.4 | 0.0 | 0.00 | 0.00 | 0.00 | 50 | 1004.1 |
| 20260504222011 | 53 | 11 | 0.0 | 0.0 | 0.00 | 0.00 | 0.00 | 50 | 1004.4 |
| 20260504221514 | 53 | 333 | 2.6 | 0.0 | 0.00 | 0.00 | 0.00 | 49 | 1004.4 |
| 20260504221012 | 53 | 86 | 4.3 | 0.0 | 0.00 | 0.00 | 0.00 | 51 | 1004.1 |
| 20260504220510 | 54 | 112 | 4.3 | 0.0 | 0.00 | 0.00 | 0.00 | 49 | 1003.4 |
| 20260504220014 | 56 | 147 | 4.3 | 0.0 | 0.00 | 0.00 | 0.00 | 44 | 1003.0 |
| 20260504215512 | 57 | 123 | 6.1 | 0.0 | 0.00 | 0.00 | 0.00 | 41 | 1002.4 |
| 20260504215014 | 58 | 155 | 8.7 | 0.0 | 0.00 | 0.00 | 0.00 | 39 | 1002.0 |
| 20260504214510 | 59 | 117 | 4.3 | 0.0 | 0.00 | 0.00 | 0.00 | 37 | 1001.4 |
| 20260504214012 | 59 | 181 | 3.5 | 0.0 | 0.00 | 0.00 | 0.00 | 37 | 1001.4 |
| 20260504213514 | 60 | 123 | 7.8 | 0.0 | 0.00 | 0.00 | 0.00 | 35 | 1001.4 |
| 20260504213012 | 61 | 103 | 1.7 | 0.0 | 0.00 | 0.00 | 0.00 | 34 | 1000.3 |
| 20260504212614 | 61 | 237 | 2.6 | 0.0 | 0.00 | 0.00 | 0.00 | 34 | 1000.3 |
| 20260504212129 | 61 | 118 | 1.7 | 0.0 | 0.00 | 0.00 | 0.00 | 33 | 1000.3 |
| 20260504211612 | 61 | 323 | 2.6 | 0.0 | 0.00 | 0.00 | 0.00 | 34 | 1000.3 |
| 20260504211113 | 62 | 212 | 1.7 | 0.0 | 0.00 | 0.00 | 0.00 | 33 | 1000.0 |
| 20260504210612 | 63 | 177 | 8.7 | 0.0 | 0.00 | 0.00 | 0.00 | 32 | 999.7 |
| 20260504210114 | 63 | 213 | 2.6 | 0.0 | 0.00 | 0.00 | 0.00 | 33 | 999.7 |
| 20260504205611 | 62 | 206 | 2.6 | 0.0 | 0.00 | 0.00 | 0.00 | 34 | 1000.7 |
| 20260504205044 | 62 | 202 | 6.1 | 0.0 | 0.00 | 0.00 | 0.00 | 35 | 1000.7 |
| 20260504204615 | 61 | 183 | 4.3 | 0.0 | 0.00 | 0.00 | 0.00 | 37 | 1000.7 |
| 20260504204041 | 60 | 190 | 6.1 | 0.0 | 0.00 | 0.00 | 0.00 | 37 | 1001.4 |
| 20260504203611 | 60 | 198 | 6.1 | 0.0 | 0.00 | 0.00 | 0.00 | 37 | 1001.4 |
| 20260504203042 | 60 | 188 | 8.7 | 0.0 | 0.00 | 0.00 | 0.00 | 38 | 1001.7 |
| 20260504202540 | 60 | 210 | 2.6 | 0.0 | 0.00 | 0.00 | 0.00 | 38 | 1001.7 |
| 20260504202041 | 59 | 172 | 2.6 | 0.0 | 0.00 | 0.00 | 0.00 | 39 | 1002.0 |
| 20260504201543 | 58 | 179 | 7.8 | 0.0 | 0.00 | 0.00 | 0.00 | 40 | 1002.4 |
| 20260504201118 | 59 | 175 | 5.2 | 0.0 | 0.00 | 0.00 | 0.00 | 40 | 1002.4 |
| 20260504200539 | 59 | 213 | 4.3 | 0.0 | 0.00 | 0.00 | 0.00 | 41 | 1002.4 |
| 20260504200042 | 58 | 243 | 0.9 | 0.0 | 0.00 | 0.00 | 0.00 | 43 | 1002.4 |
| 20260504195616 | 56 | 155 | 0.9 | 0.0 | 0.00 | 0.00 | 0.00 | 45 | 1003.0 |
| 20260504195039 | 56 | 332 | 2.6 | 0.0 | 0.00 | 0.00 | 0.00 | 44 | 1003.4 |
| 20260504194614 | 56 | 360 | 2.6 | 0.0 | 0.00 | 0.00 | 0.00 | 44 | 1003.7 |
| 20260504194041 | 55 | 28 | 0.9 | 0.0 | 0.00 | 0.00 | 0.00 | 45 | 1004.4 |
| 20260504193539 | 55 | 330 | 4.3 | 0.0 | 0.00 | 0.00 | 0.00 | 44 | 1004.4 |
| 20260504193040 | 56 | 262 | 4.3 | 0.0 | 0.00 | 0.00 | 0.00 | 43 | 1004.1 |
| 20260504192538 | 56 | 335 | 2.6 | 0.0 | 0.00 | 0.00 | 0.00 | 43 | 1003.7 |
| 20260504192044 | 56 | 346 | 8.7 | 0.0 | 0.00 | 0.00 | 0.00 | 42 | 1003.7 |
| 20260504191541 | 57 | 339 | 3.5 | 0.0 | 0.00 | 0.00 | 0.00 | 40 | 1003.7 |
| 20260504191044 | 58 | 28 | 6.1 | 0.0 | 0.00 | 0.00 | 0.00 | 39 | 1003.0 |
| 20260504190539 | 59 | 360 | 8.7 | 0.0 | 0.00 | 0.00 | 0.00 | 37 | 1002.7 |
| 20260504190041 | 60 | 292 | 9.6 | 0.0 | 0.00 | 0.00 | 0.00 | 35 | 1001.7 |
| 20260504185540 | 60 | 42 | 5.2 | 0.0 | 0.00 | 0.00 | 0.00 | 34 | 1001.4 |
| 20260504185045 | 60 | 142 | 2.6 | 0.0 | 0.00 | 0.00 | 0.00 | 33 | 1001.4 |
| 20260504184541 | 60 | 175 | 8.7 | 0.0 | 0.00 | 0.00 | 0.00 | 33 | 1001.4 |
| 20260504184038 | 60 | 192 | 1.7 | 0.0 | 0.00 | 0.00 | 0.00 | 34 | 1001.7 |
| 20260504183540 | 59 | 80 | 0.0 | 0.0 | 0.00 | 0.00 | 0.00 | 33 | 1002.0 |
| 20260504183042 | 59 | 315 | 0.9 | 0.0 | 0.00 | 0.00 | 0.00 | 35 | 1002.0 |
| 20260504182539 | 58 | 294 | 4.3 | 0.0 | 0.00 | 0.00 | 0.00 | 36 | 1002.4 |
| 20260504182042 | 59 | 315 | 5.2 | 0.0 | 0.00 | 0.00 | 0.00 | 34 | 1002.4 |
| 20260504181539 | 60 | 333 | 5.2 | 0.0 | 0.00 | 0.00 | 0.00 | 35 | 1001.7 |
| 20260504181040 | 60 | 355 | 9.6 | 0.0 | 0.00 | 0.00 | 0.00 | 34 | 1001.7 |
| 20260504180537 | 61 | 349 | 7.8 | 0.0 | 0.00 | 0.00 | 0.00 | 33 | 1001.7 |
| 20260504180043 | 60 | 332 | 5.2 | 0.0 | 0.00 | 0.00 | 0.00 | 33 | 1001.4 |
| 20260504175538 | 60 | 18 | 2.6 | 0.0 | 0.00 | 0.00 | 0.00 | 34 | 1001.0 |
| 20260504175039 | 61 | 9 | 5.2 | 0.0 | 0.00 | 0.00 | 0.00 | 34 | 1001.0 |
| 20260504174542 | 60 | 28 | 5.2 | 0.0 | 0.00 | 0.00 | 0.00 | 34 | 1001.4 |
| 20260504174044 | 61 | 355 | 6.1 | 0.0 | 0.00 | 0.00 | 0.00 | 33 | 1001.4 |
| 20260504173540 | 61 | 338 | 3.5 | 0.0 | 0.00 | 0.00 | 0.00 | 34 | 1001.4 |
| 20260504173038 | 61 | 78 | 5.2 | 0.0 | 0.00 | 0.00 | 0.00 | 33 | 1001.4 |
| 20260504172539 | 62 | 282 | 8.7 | 0.0 | 0.00 | 0.00 | 0.00 | 33 | 1001.0 |
| 20260504172040 | 62 | 360 | 3.5 | 0.0 | 0.00 | 0.00 | 0.00 | 32 | 1001.0 |
| 20260504171541 | 62 | 336 | 0.9 | 0.0 | 0.00 | 0.00 | 0.00 | 33 | 1001.4 |
| 20260504171040 | 62 | 315 | 0.9 | 0.0 | 0.00 | 0.00 | 0.00 | 34 | 1001.7 |
| 20260504170538 | 61 | 214 | 3.5 | 0.0 | 0.00 | 0.00 | 0.00 | 33 | 1001.7 |
| 20260504151026 | 50 | 18 | 0.0 | 0.0 | 0.00 | 0.00 | 0.00 | 42 | 1003.4 |
| 20260504150524 | 50 | 18 | 0.0 | 0.0 | 0.00 | 0.00 | 0.00 | 42 | 1003.4 |
| 20260504141025 | 46 | 360 | 0.0 | 0.0 | 0.00 | 0.00 | 0.00 | 45 | 1004.4 |
| 20260504140523 | 45 | 350 | 4.3 | 0.0 | 0.00 | 0.00 | 0.00 | 46 | 1004.1 |
| 20260504130623 | 38 | 21 | 4.3 | 0.0 | 0.00 | 0.00 | 0.00 | 54 | 1005.8 |
| 20260504130124 | 38 | 360 | 3.5 | 0.0 | 0.00 | 0.00 | 0.00 | 55 | 1005.1 |
| 20260504110540 | 37 | 16 | 3.5 | 0.0 | 0.00 | 0.00 | 0.00 | 54 | 1004.7 |
| 20260504100543 | 39 | 26 | 3.5 | 0.0 | 0.00 | 0.00 | 0.00 | 52 | 1004.1 |
| 20260504081537 | 40 | 16 | 3.5 | 0.0 | 0.00 | 0.00 | 0.00 | 53 | 1004.4 |
| 20260504081041 | 40 | 18 | 4.3 | 0.0 | 0.00 | 0.00 | 0.00 | 53 | 1004.4 |
| 20260504080537 | 40 | 22 | 5.2 | 0.0 | 0.00 | 0.00 | 0.00 | 53 | 1004.4 |